Location: Sankt Anna
(58.3452°N, 16.7040°E)
Time: 14:24:50
(UTC+02:00)

UNISAT 6 - Visible Passes

Search period start: 19 May 2019 00:00
Search period end: 29 May 2019 00:00
Orbit: 608 x 689 km, 97.8° (Epoch: 18 May)

Date Brightness Start Highest point End Pass type
(mag) Time Alt. Az. Time Alt. Az. Time Alt. Az.
19 May ? 00:38:36 10° NNW 00:40:30 13° NW 00:42:22 10° WNW visible
19 May ? 23:26:42 10° N 23:30:39 31° WNW 23:34:32 10° WSW visible
20 May ? 22:15:43 10° NNE 22:20:13 82° ESE 22:24:35 10° SSW visible
20 May ? 23:53:03 10° N 23:56:28 22° NW 23:59:48 10° WSW visible
21 May ? 22:41:50 10° NNE 22:46:15 64° WNW 22:50:33 10° SSW visible
22 May ? 00:19:33 10° N 00:22:11 16° NW 00:24:46 10° W visible
22 May ? 23:08:00 10° N 23:12:12 41° WNW 23:16:16 10° SW visible
23 May ? 00:46:33 10° NNW 00:47:50 11° NW 00:49:06 10° WNW visible
23 May ? 23:34:16 10° N 23:38:03 28° WNW 23:41:44 10° WSW visible
25 May ? 00:00:40 10° N 00:03:49 19° NW 00:06:55 10° W visible
25 May ? 22:49:21 10° N 22:53:40 55° WNW 22:57:53 10° SW visible
26 May ? 00:27:16 10° NNW 00:29:31 14° NW 00:31:44 10° WNW visible
26 May ? 23:15:33 10° N 23:19:34 36° WNW 23:23:31 10° SW visible
27 May ? 23:41:51 10° N 23:45:24 24° NW 23:48:54 10° WSW visible
